GFSFLT1_250_rhum_111.txt.gz
RH
23 24 30 35 55 100 100 82 34 23 22 19 90 100 100 100 95 97 83 82 100 100 100 81 51 98 100 68 56 54 82 88
23 24 31 41 58 100 100 81 32 25 26 20 71 100 100 100 87 90 100 100 100 100 99 89 94 100 98 72 38 52 82 93
22 28 42 43 67 100 100 58 31 30 27 22 42 100 100 98 98 99 100 100 100 100 100 98 100 90 67 71 62 52 99 100
22 32 45 45 70 100 100 42 34 31 25 24 23 100 100 100 100 100 100 100 100 100 100 100 100 84 72 64 61 72 99 100
22 35 54 59 71 100 100 42 38 35 27 27 21 62 100 100 100 100 100 100 100 100 100 99 100 84 100 73 78 95 100 91
22 34 56 62 70 95 90 51 39 34 31 29 23 19 100 100 100 100 100 100 100 100 100 100 91 90 100 100 94 99 92 100
25 38 59 83 71 93 96 53 43 32 33 32 28 19 27 100 100 100 98 100 98 99 98 100 100 91 96 100 87 100 100 100
33 72 69 96 59 96 96 66 43 38 36 36 28 22 19 64 100 100 100 100 100 100 100 78 84 84 90 100 100 100 100 100
40 100 100 96 63 97 100 75 48 40 38 35 31 28 21 21 91 100 100 100 100 100 100 100 100 100 100 100 100 100 100 100
52 100 100 96 65 100 100 83 41 42 37 40 38 34 23 28 34 93 100 100 100 100 100 100 100 100 100 100 100 100 100 100
71 100 100 97 62 85 100 80 39 47 43 40 41 36 30 56 74 73 100 100 100 100 100 100 100 100 100 100 100 100 100 100
81 99 100 100 92 68 96 96 49 61 54 47 40 39 39 35 100 90 76 96 100 100 100 100 100 100 100 100 100 100 100 100
76 100 100 99 81 82 73 69 62 66 61 54 43 36 39 37 62 100 96 77 64 100 100 100 100 100 100 100 100 96 88 100
78 100 100 100 91 81 56 59 80 74 57 50 40 36 36 47 37 75 100 100 78 68 78 100 100 100 100 100 100 100 100 100
100 100 100 100 93 99 60 44 100 94 55 72 54 45 37 40 41 32 56 100 100 90 66 74 98 100 100 100 100 100 100 100
100 100 100 96 97 88 60 38 84 99 89 51 66 53 49 40 46 40 32 34 99 100 100 100 100 100 100 100 100 100 100 100
100 99 100 100 100 99 84 71 64 94 71 71 91 88 66 56 52 41 34 28 27 56 100 100 100 100 100 100 100 100 100 100
100 100 100 100 100 89 98 92 61 69 86 100 86 98 93 73 45 45 60 51 38 29 30 55 88 99 100 100 100 100 100 100
100 80 98 100 100 100 100 100 100 94 52 98 100 100 98 78 50 45 48 54 64 67 46 40 36 37 45 56 69 81 84 85

GFSFLT1_250_rhum_114.txt.gz
RH
75 82 57 36 27 23 27 37 66 50 68 41 21 32 100 91 74 100 100 100 100 100 82 80 85 63 49 72 58 49 62 66
80 67 54 39 26 23 31 41 71 47 73 34 22 35 100 100 90 100 100 98 100 100 100 100 100 86 62 70 76 63 58 61
82 52 47 33 23 23 32 75 66 57 73 27 18 27 100 100 100 100 100 80 97 100 100 100 100 100 90 66 93 82 54 44
68 50 44 29 22 24 40 92 69 77 47 27 20 21 91 100 100 100 99 68 95 100 100 100 100 100 91 75 86 92 75 46
59 42 35 26 20 26 51 98 66 73 38 30 24 23 70 100 100 100 100 88 92 99 100 100 100 100 100 96 88 82 86 72
59 46 33 23 20 34 69 100 65 58 39 31 24 25 33 100 100 100 100 100 98 100 100 100 100 100 100 80 100 91 100 100
57 51 31 22 23 40 83 100 66 56 40 34 26 24 24 60 100 100 100 99 100 100 100 100 100 100 100 100 99 88 100 88
50 44 33 23 26 42 92 95 73 53 45 33 30 28 26 23 91 100 100 100 94 100 77 82 100 94 54 66 72 89 84 94
46 38 32 23 28 54 98 90 68 56 43 37 36 30 27 25 23 99 100 100 100 100 100 99 100 100 100 100 100 100 100 100
40 39 32 23 36 58 89 99 61 70 46 35 34 36 33 27 21 22 99 100 83 100 100 91 98 100 100 100 100 100 100 100
37 35 34 26 39 79 91 96 71 73 54 39 37 35 36 33 24 23 23 98 100 100 100 100 100 100 94 87 97 100 100 100
35 33 35 35 40 100 100 83 93 84 50 36 42 34 37 38 34 60 45 59 100 100 100 100 100 100 100 100 100 100 100 100
29 29 33 47 58 100 100 98 100 98 68 48 44 39 36 37 36 77 78 90 100 100 100 100 100 100 100 100 100 100 100 100
24 26 35 55 72 100 100 100 100 100 78 63 63 47 38 36 36 35 100 94 100 100 100 100 100 100 100 100 100 100 100 100
24 26 42 73 98 100 100 100 100 100 78 54 70 62 51 45 35 34 34 80 97 100 100 100 100 100 100 100 100 100 96 93
25 30 76 96 100 100 100 100 100 100 76 82 69 83 89 73 49 36 34 32 84 83 100 100 100 100 100 100 100 100 100 98
45 41 99 100 100 100 100 100 99 100 72 100 88 64 84 98 84 74 52 37 33 36 100 77 74 100 100 100 100 100 100 100
93 74 82 100 100 100 100 100 100 88 62 85 100 93 58 72 83 77 83 77 54 38 34 69 100 100 100 100 100 100 100 100
100 93 82 100 100 100 100 100 86 66 62 70 80 93 91 85 100 96 90 66 52 61 64 42 35 61 99 100 100 100 100 100

GFSFLT1_250_rhum_117.txt.gz
RH
62 38 33 50 58 90 50 38 27 25 29 35 49 51 27 26 62 99 100 100 86 91 85 78 87 74 62 47 51 41 37 44
62 40 38 62 68 92 40 34 25 24 32 39 55 60 25 29 99 100 100 100 87 68 85 85 88 95 83 57 41 38 43 40
56 51 40 57 87 77 44 32 24 24 34 46 59 55 24 46 100 94 84 100 98 71 100 90 94 85 62 51 44 51 59 50
73 50 56 65 71 78 45 30 23 26 39 61 78 42 22 27 100 100 90 100 100 90 99 97 72 100 99 76 74 74 64 60
66 55 68 52 97 74 36 27 24 32 45 84 82 36 25 22 100 100 77 100 100 100 100 100 100 100 100 100 100 87 84 79
46 63 49 100 88 60 32 26 25 35 75 100 66 35 29 22 95 100 70 100 100 100 100 100 100 100 100 100 100 100 96 98
72 63 70 96 70 54 29 25 27 41 95 100 48 34 28 25 52 100 61 100 100 100 100 100 100 100 100 100 100 100 100 100
80 45 67 76 64 50 28 26 36 73 100 92 42 33 27 23 25 100 82 98 100 100 100 100 100 100 100 100 100 100 100 100
61 46 71 58 68 42 29 30 50 100 100 76 42 34 29 26 26 76 100 62 100 100 100 100 100 100 100 100 100 95 95 100
70 62 57 68 73 39 30 36 65 100 100 89 44 34 31 33 26 24 99 100 78 100 100 100 100 100 100 100 100 100 100 100
74 62 63 72 66 37 28 42 73 100 100 92 44 38 30 32 27 20 29 99 93 98 93 100 100 100 98 89 71 72 89 81
80 72 84 81 47 33 27 50 86 100 100 85 47 42 36 38 32 23 20 27 100 99 97 87 70 62 83 98 100 75 74 99
89 87 95 73 35 29 29 55 96 100 100 87 56 44 42 43 42 33 28 23 24 100 100 100 97 86 84 100 100 100 100 100
88 84 88 44 30 27 30 61 100 100 100 98 57 44 54 53 43 36 35 40 77 26 97 100 100 100 100 100 98 100 100 100
77 75 60 32 27 27 36 72 100 100 100 96 64 62 60 56 41 40 34 35 73 100 68 95 100 100 100 100 100 100 100 100
82 66 37 32 26 26 48 99 100 100 100 96 75 64 64 64 46 52 45 36 37 100 100 100 100 100 100 100 100 100 100 100
67 48 33 26 26 31 98 100 100 100 100 100 96 63 68 74 68 69 53 56 39 46 100 100 100 100 100 100 100 100 100 100
56 33 30 24 29 50 100 100 100 100 100 100 96 83 81 93 80 87 67 61 52 40 49 82 100 100 100 100 100 100 100 100
46 31 27 26 50 82 100 100 100 100 98 100 100 100 100 100 100 92 77 86 83 64 47 44 54 100 100 100 100 100 100 99

GFSFLT1_250_rhum_123.txt.gz
RH
49 43 62 96 100 100 100 100 100 100 100 86 66 47 33 30 23 25 28 42 27 25 52 72 78 100 100 100 100 100 73 71
56 50 43 45 56 61 72 78 100 100 100 96 51 51 35 31 23 28 40 46 32 27 78 95 85 100 100 100 100 97 54 76
67 55 58 55 58 48 53 59 69 100 100 87 62 48 32 30 23 28 54 61 31 22 92 98 85 100 100 100 91 87 59 81
77 92 68 57 66 59 100 100 100 98 95 85 53 45 33 30 23 29 54 49 26 26 46 93 87 100 100 100 91 80 78 77
100 97 62 80 98 77 76 77 97 100 92 83 52 43 30 30 23 32 52 46 24 60 50 80 97 100 100 100 100 91 71 71
100 98 85 100 100 76 76 100 100 99 100 79 39 37 32 28 24 35 56 44 28 85 59 97 100 100 100 100 100 94 59 54
100 100 100 100 100 81 90 100 83 99 96 59 42 40 34 31 28 43 62 35 24 92 57 96 100 100 100 100 100 89 83 63
100 100 100 100 100 78 74 86 100 83 80 57 51 37 48 32 31 56 61 28 22 100 64 58 97 100 100 100 100 100 100 100
74 91 100 100 99 88 83 85 95 91 100 80 45 42 57 46 35 68 65 32 24 95 84 64 63 100 91 100 100 100 100 100
86 88 100 100 100 91 71 96 100 99 91 72 55 43 36 27 39 82 44 30 24 68 97 76 89 100 100 100 100 100 100 83
93 90 100 100 100 82 73 84 96 89 86 76 52 41 72 40 56 98 46 32 27 23 99 80 84 100 100 100 100 100 100 100
100 98 94 100 99 91 84 78 99 92 100 77 47 40 55 60 95 100 52 34 30 22 92 83 82 100 100 100 100 100 100 100
100 100 100 94 100 95 99 100 99 99 100 60 54 42 53 96 100 97 48 35 29 24 77 88 81 88 100 100 100 100 100 100
100 100 100 91 86 87 79 99 100 100 68 54 54 45 41 100 100 93 55 38 30 27 33 100 93 83 96 100 100 100 100 100
90 92 98 100 99 86 100 100 100 83 64 60 52 44 41 100 100 85 53 41 32 31 25 61 100 99 87 98 100 100 100 100
94 92 95 100 100 100 100 99 93 84 71 71 55 43 56 100 100 81 51 44 37 33 31 22 41 90 100 66 73 100 100 100
82 87 94 99 100 97 97 96 93 83 78 66 47 42 67 100 98 76 49 45 42 38 31 27 27 24 29 100 79 80 97 92
73 69 77 83 87 87 88 94 81 73 76 69 44 38 73 100 100 72 49 47 47 38 33 29 36 48 54 55 100 100 98 100
65 66 74 78 89 91 87 81 79 94 73 56 44 35 85 100 100 66 58 51 45 39 36 31 32 100 98 100 100 100 100 100

GFSFLT1_250_rhum_129.txt.gz
RH
57 61 69 54 54 74 92 99 84 60 48 59 90 59 91 94 100 77 71 59 49 54 35 28 24 46 62 51 100 100 92 94
69 77 73 94 57 70 93 98 77 52 70 70 62 55 58 53 59 59 65 41 60 62 44 30 26 42 56 45 100 100 99 100
100 100 82 98 100 100 100 100 89 61 72 83 76 60 54 52 53 64 68 61 67 72 44 37 28 39 45 40 56 100 100 99
100 97 100 100 100 100 100 100 100 95 82 77 74 78 73 66 56 91 80 86 50 52 52 46 30 34 45 42 38 99 100 100
89 94 100 99 80 100 100 100 100 100 100 92 84 78 71 70 68 100 80 57 53 56 47 60 68 61 63 44 33 69 93 100
84 87 100 100 91 100 100 100 100 100 100 100 100 100 67 75 100 100 97 54 60 58 39 61 72 81 72 55 33 58 72 91
87 95 87 100 100 100 100 100 98 100 100 100 100 100 74 100 100 100 88 85 69 48 54 70 66 86 71 61 28 67 80 90
99 100 100 100 100 100 100 100 100 100 100 100 97 96 100 100 100 100 100 87 91 57 67 77 32 54 71 52 53 67 87 85
100 100 100 100 100 100 100 100 100 100 70 65 98 100 100 94 100 100 100 99 68 51 55 71 31 50 64 45 83 76 72 100
100 100 100 100 100 100 100 100 100 100 81 71 98 100 100 98 99 100 100 93 65 52 52 66 36 52 54 38 98 92 97 100
100 100 100 100 100 100 100 100 100 100 82 66 94 100 100 100 100 100 100 86 59 56 69 73 41 52 53 37 92 99 100 100
93 100 100 100 100 100 100 100 100 100 100 98 100 100 98 88 81 97 100 85 72 62 79 79 43 53 42 34 74 100 100 100
54 88 100 100 100 100 100 100 100 100 91 89 100 100 100 83 91 100 76 80 77 66 80 71 42 58 58 32 49 100 100 100
39 39 60 97 100 100 100 100 95 92 79 82 97 100 100 84 73 78 86 64 68 68 91 85 44 62 54 27 28 86 100 96
39 41 39 53 91 100 100 100 100 100 96 94 100 100 93 74 88 90 94 66 68 64 83 97 47 60 48 29 29 55 100 100
53 46 40 52 92 99 100 100 100 100 98 90 84 72 74 81 100 96 100 77 67 82 77 100 60 68 54 36 27 34 100 100
41 55 77 71 69 99 100 100 100 100 100 100 100 97 84 100 100 100 100 64 68 70 60 100 77 78 68 41 32 51 91 100
18 38 54 88 90 97 100 100 100 100 100 100 100 100 100 100 100 100 100 89 57 63 57 73 100 84 73 38 36 32 64 100
24 34 45 70 95 96 100 100 100 100 100 100 100 100 100 100 100 97 98 82 64 63 52 62 100 97 86 44 37 33 28 36

GFSFLT1_250_rhum_132.txt.gz
RH
51 56 57 62 57 51 46 39 64 100 100 100 100 100 100 100 86 69 67 55 42 41 55 83 95 100 54 53 92 100 99 98
40 44 49 45 46 50 48 42 49 87 100 100 100 100 92 100 86 65 58 52 53 49 84 88 88 97 62 63 78 99 97 81
37 44 47 40 40 54 73 50 48 85 93 100 100 100 95 90 81 67 60 64 63 52 75 66 85 92 63 51 76 98 99 100
28 34 43 41 42 64 95 64 66 97 100 100 100 100 100 66 71 61 68 70 66 58 74 69 68 66 63 45 67 100 84 95
23 26 32 38 47 65 77 78 98 84 100 100 100 100 100 100 98 74 65 80 100 63 87 70 64 79 66 73 62 77 55 53
15 34 31 36 43 58 86 89 100 93 100 100 98 100 100 100 100 96 90 97 90 100 82 86 71 58 65 100 80 80 57 52
26 36 38 42 51 79 100 100 100 100 100 100 85 96 100 100 100 100 100 95 100 99 76 74 83 62 74 89 95 93 73 60
27 50 59 65 79 100 100 100 100 100 100 100 97 90 80 100 100 100 100 100 100 67 51 78 100 65 78 80 92 98 90 65
21 42 60 84 97 100 100 100 100 100 99 100 79 97 100 100 89 100 100 97 70 57 54 95 100 63 69 76 85 98 100 79
25 29 54 98 100 100 100 100 100 100 100 100 100 74 86 99 97 99 89 83 72 74 78 100 94 61 66 86 88 100 96 60
29 26 34 97 100 100 98 96 100 100 100 100 100 100 91 90 100 81 72 77 77 67 100 97 95 87 89 81 87 82 75 48
31 33 42 82 96 100 100 100 100 100 100 100 100 100 96 89 92 86 70 70 80 85 100 100 100 77 73 72 44 49 67 38
35 25 29 52 96 100 100 100 100 100 100 100 100 85 83 100 100 95 64 88 100 100 82 100 100 69 64 71 50 52 69 38
35 34 33 41 87 100 100 100 100 88 100 100 100 98 87 96 91 81 72 100 100 86 63 100 100 95 78 60 58 53 70 34
58 68 50 40 66 88 100 100 100 100 100 100 100 100 100 99 97 95 76 100 100 100 71 71 95 98 86 68 54 52 77 41
100 63 42 56 79 86 100 100 100 100 100 100 100 100 100 100 100 92 77 96 100 100 74 68 96 93 85 73 64 51 81 40
52 80 71 60 38 56 57 90 100 100 100 100 100 100 100 100 100 82 81 100 100 81 65 63 81 91 98 69 68 56 88 39
28 25 29 32 50 56 69 64 64 87 100 100 100 100 100 100 86 86 100 98 76 64 63 54 74 68 98 65 81 61 88 51
21 24 24 27 44 52 71 83 73 67 96 100 100 100 100 90 93 82 74 70 56 61 67 95 100 100 75 69 70 83 82 76

GFSFLT1_250_rhum_135.txt.gz
RH
68 57 36 34 36 36 38 48 62 82 89 87 69 64 60 88 100 100 100 100 100 100 74 40 36 54 72 100 100 91 90 86
38 29 21 18 26 28 38 38 41 47 79 88 81 85 93 75 100 100 100 100 100 100 76 51 31 45 90 100 100 56 78 84
24 17 15 15 16 19 29 36 46 46 66 70 72 86 77 67 98 100 100 100 100 80 89 45 36 86 95 100 100 85 54 58
16 17 13 14 17 16 24 22 30 51 57 65 89 86 98 95 93 100 100 98 79 72 91 39 35 71 87 72 99 71 74 51
11 14 16 18 18 16 20 23 30 39 57 67 80 98 100 100 100 100 100 100 100 100 91 85 76 63 66 56 66 74 99 75
14 15 20 19 19 19 19 22 34 38 41 55 61 100 99 98 100 100 96 70 85 95 100 98 79 65 47 38 67 70 78 86
14 16 19 22 21 22 25 29 41 48 46 50 62 88 100 100 100 100 88 59 74 82 100 100 99 91 82 44 47 90 71 92
13 17 20 23 24 28 32 43 55 69 47 58 64 93 96 100 100 100 100 70 82 84 90 92 100 87 68 44 46 95 76 88
13 16 21 24 28 29 41 62 66 86 82 77 77 96 100 100 100 100 100 100 86 99 84 66 84 89 70 53 54 94 69 79
11 15 23 40 34 33 50 60 99 100 85 92 81 88 100 100 100 100 100 100 100 100 82 84 70 77 70 60 73 78 89 77
16 21 23 31 31 35 29 67 100 100 84 66 86 100 100 100 100 100 100 100 100 100 98 90 81 63 65 55 86 94 75 84
17 22 27 50 34 30 31 73 93 90 84 94 94 100 100 100 100 100 99 98 91 97 89 66 72 56 65 61 92 100 83 66
17 21 25 34 36 33 38 54 65 92 100 100 100 100 100 100 100 100 100 96 91 71 81 72 69 78 85 83 100 100 84 75
29 43 45 47 48 45 53 52 67 82 100 100 99 98 95 100 100 100 100 100 88 81 72 84 71 88 100 83 100 99 92 70
100 100 100 79 74 63 50 51 78 95 95 89 100 98 94 96 100 86 90 89 91 80 92 100 75 92 98 98 98 92 97 70
87 100 100 100 100 47 71 75 55 79 86 80 90 100 94 100 100 100 100 77 96 82 88 74 81 93 93 100 90 79 99 70
62 80 63 68 62 54 58 80 72 87 99 96 88 94 100 100 100 100 100 76 82 68 84 89 91 100 100 94 79 68 92 90
41 43 100 90 84 92 77 57 89 88 89 100 100 100 100 100 100 100 100 100 99 70 90 95 90 93 100 82 58 58 71 57
22 27 47 83 100 72 47 79 69 88 93 98 99 100 100 100 100 100 100 100 100 100 100 100 96 91 93 96 100 95 100 100

GFSFLT1_250_rhum_138.txt.gz
RH
84 72 49 42 41 42 43 40 34 38 40 38 48 70 82 79 78 66 60 57 85 100 100 100 100 98 61 34 49 77 93 100
68 65 49 40 34 28 26 23 24 27 27 28 40 70 63 55 64 65 50 83 80 79 100 100 94 97 61 32 58 100 91 100
34 32 31 28 22 20 17 16 17 18 24 22 23 51 73 74 77 73 82 89 100 78 74 95 89 91 51 40 72 100 100 100
31 30 26 23 21 20 17 15 15 14 19 21 22 37 60 88 100 100 98 91 99 99 100 92 82 87 73 54 78 94 100 100
33 31 27 20 20 19 17 15 14 15 16 18 22 27 46 83 99 100 98 93 88 88 100 100 100 96 84 69 90 88 84 72
28 26 23 20 20 22 19 16 14 15 19 24 36 98 61 69 84 100 100 100 100 78 94 100 100 100 80 66 78 78 86 61
23 20 17 15 17 18 19 17 15 17 25 40 37 58 88 96 94 100 100 100 78 85 95 100 100 79 82 87 70 84 80 63
15 13 14 13 16 21 21 28 18 18 18 25 64 47 33 52 69 90 100 100 100 100 94 100 94 62 74 80 63 61 61 70
14 12 15 15 18 27 38 28 32 26 30 26 27 29 32 30 38 45 66 96 100 100 80 100 76 79 94 80 70 64 80 65
14 12 16 15 17 20 28 28 24 21 30 29 35 54 46 36 37 40 50 68 92 92 81 89 78 93 82 76 81 85 88 60
12 11 12 15 19 22 25 32 28 30 28 33 36 32 43 50 40 42 48 61 81 99 100 100 100 98 80 88 75 78 82 58
10 11 15 13 18 20 22 24 34 46 40 35 30 30 52 70 62 67 70 96 100 100 100 100 100 100 79 97 87 78 66 50
9 11 16 21 18 20 22 29 49 61 56 42 39 60 72 87 86 89 96 100 100 100 100 100 100 100 100 87 86 76 68 60
11 15 28 100 99 44 25 31 49 60 56 52 60 79 86 91 94 100 100 99 100 100 100 100 100 100 95 98 77 73 79 88
11 17 52 100 100 100 63 53 83 49 51 51 67 87 90 84 97 98 100 100 100 100 100 100 100 100 100 82 71 85 88 97
15 24 57 99 100 86 64 35 36 46 59 66 76 97 82 90 97 96 100 99 100 100 100 100 100 100 100 79 74 88 85 100
14 61 70 100 100 86 66 70 78 66 60 64 67 88 100 100 100 100 100 100 100 100 90 99 100 100 100 99 96 97 78 93
16 17 54 73 80 60 85 82 79 72 75 67 76 82 97 96 98 100 100 100 100 100 100 100 100 100 100 100 87 82 77 79
18 26 96 100 100 100 100 100 86 83 80 78 81 83 88 96 96 95 97 100 100 99 100 100 85 100 94 84 71 64 77 76

GFSFLT1_250_rhum_141.txt.gz
RH
56 56 57 43 40 44 50 48 52 60 59 55 58 70 87 89 80 56 52 58 55 66 68 85 69 67 85 100 96 87 68 44
100 100 99 98 85 68 51 43 42 32 24 27 38 43 58 64 59 45 73 54 61 98 92 67 85 78 80 100 80 71 93 62
99 91 75 70 72 60 49 43 36 31 26 21 20 21 27 28 32 41 54 68 85 100 100 100 97 97 100 98 74 72 96 73
76 78 76 74 68 61 59 52 45 34 29 22 19 19 18 18 21 25 72 60 84 100 100 100 98 100 100 99 70 59 92 100
55 62 63 59 58 56 52 47 39 31 26 19 16 14 15 16 17 19 26 41 74 100 100 96 100 100 99 100 73 56 81 100
69 69 64 62 53 48 42 37 34 26 23 18 14 13 13 20 37 26 53 60 50 99 100 100 100 100 100 100 99 96 77 100
91 92 94 63 42 35 38 34 28 24 22 19 29 33 40 64 93 58 93 100 47 48 93 100 100 100 100 100 100 100 94 86
64 56 48 40 33 29 30 28 35 21 25 51 66 82 52 69 46 95 100 100 90 62 54 74 100 99 93 99 100 100 100 80
33 33 38 31 22 23 22 27 46 62 59 62 90 96 30 38 76 100 100 100 82 100 71 70 87 100 95 99 100 100 100 90
15 15 17 14 9 11 14 23 32 62 56 36 58 91 33 24 52 100 100 97 80 94 95 74 84 100 100 100 100 96 76 88
9 9 9 10 9 12 15 17 23 28 38 32 29 36 34 33 35 67 81 97 81 70 83 100 100 100 100 100 100 90 69 94
8 9 8 9 9 11 13 17 23 90 32 43 42 46 29 27 37 42 37 43 49 44 46 71 95 100 100 100 100 95 66 85
6 6 6 6 7 9 11 13 18 29 31 32 36 45 40 39 46 36 31 31 36 32 29 32 37 65 89 100 100 81 72 93
5 6 7 8 8 9 10 12 16 23 29 30 37 44 40 38 40 31 35 51 53 56 50 52 55 51 76 82 80 90 69 91
7 7 8 9 11 14 12 14 19 21 27 29 36 53 56 54 62 58 61 75 85 72 69 71 75 93 99 100 81 97 100 100
8 8 8 10 18 26 28 54 50 57 26 29 47 69 67 76 83 74 78 88 91 92 95 98 85 100 100 100 91 100 85 100
9 11 10 10 35 70 97 79 81 85 72 53 54 74 79 85 90 77 77 89 95 98 100 100 100 99 100 89 99 100 100 100
12 12 11 14 69 95 100 100 100 96 100 100 93 90 83 85 83 76 85 95 92 98 98 100 100 100 100 100 100 100 100 100
14 14 19 32 67 100 100 100 100 100 100 97 100 100 74 82 80 72 77 88 95 100 100 100 100 100 100 100 100 100 100 100

GFSFLT1_250_rhum_144.txt.gz
RH
80 74 78 76 65 60 59 58 51 48 51 50 52 50 60 57 71 74 68 67 66 64 70 79 83 89 92 100 94 74 72 100
47 51 63 72 82 67 79 100 99 100 100 82 63 55 49 47 48 51 50 54 49 52 58 66 65 77 90 100 100 100 90 100
50 52 48 53 60 78 68 86 100 88 82 81 68 57 47 41 39 40 30 26 31 39 42 45 43 68 100 100 100 100 100 100
68 65 62 65 68 69 69 83 90 83 76 64 56 52 50 41 40 36 36 30 24 24 28 29 37 56 93 99 99 100 100 100
72 98 89 76 86 65 57 58 63 63 62 61 59 50 42 38 30 26 25 27 23 22 21 28 48 100 100 100 95 100 100 100
88 80 97 100 99 91 89 62 71 76 69 65 61 47 37 30 27 19 22 24 23 22 18 19 31 100 100 100 100 100 100 100
76 78 85 91 99 100 99 96 99 100 82 72 68 55 37 25 22 22 22 32 26 26 37 26 20 78 83 100 100 100 98 99
45 60 64 67 92 94 96 78 86 100 84 60 49 42 36 45 50 52 93 86 56 75 68 92 96 76 87 100 100 100 100 100
34 35 36 50 63 67 67 58 59 62 54 48 41 33 34 54 41 93 94 97 64 96 100 97 100 100 77 70 100 85 100 100
16 17 20 28 35 33 31 32 41 35 36 36 47 49 68 78 100 100 58 84 62 100 100 100 100 88 68 61 95 100 100 100
16 16 18 18 21 20 21 22 20 23 28 32 35 41 69 81 100 100 67 81 84 96 100 100 100 87 71 86 93 100 100 100
7 8 8 8 10 9 7 10 8 11 16 18 22 34 30 74 99 95 61 77 98 100 100 100 100 55 72 100 100 100 100 100
8 10 9 10 9 9 9 10 10 13 21 25 30 46 40 66 100 72 38 46 73 100 100 100 87 45 49 81 100 100 100 100
10 8 8 7 6 6 6 7 8 12 20 30 62 65 66 57 58 66 45 30 37 76 92 99 84 55 47 70 96 100 100 100
5 5 5 5 5 5 5 6 7 10 19 31 36 98 94 93 71 64 66 58 75 70 73 82 72 53 49 59 77 82 100 100
5 5 5 6 6 7 6 7 9 11 18 28 42 59 53 41 44 68 80 84 80 49 49 47 62 66 72 74 59 52 73 100
5 6 6 6 7 9 10 13 12 14 22 27 38 65 87 58 61 76 94 89 48 62 44 44 50 47 47 62 69 52 35 60
6 6 6 7 8 11 13 19 28 17 32 42 45 66 49 65 98 100 100 78 79 80 65 67 68 66 74 89 92 84 44 48
6 7 8 8 11 14 17 31 38 36 62 74 79 80 88 87 92 90 95 96 84 77 67 72 71 75 88 99 100 100 90 91

GFSFLT1_250_rhum_147.txt.gz
RH
58 56 53 53 62 57 46 52 67 56 55 71 70 70 64 67 69 86 93 89 80 64 59 61 73 76 74 67 59 59 71 84
45 42 44 53 65 60 44 45 44 39 48 64 85 86 73 63 69 82 81 73 88 68 62 51 52 50 56 61 75 68 66 72
68 50 49 49 52 66 65 59 53 51 45 52 54 58 85 88 82 77 77 70 70 69 55 51 44 44 37 37 50 64 66 62
56 51 48 48 55 61 67 66 66 65 66 71 73 73 69 81 96 95 82 72 61 48 44 36 34 37 33 25 29 38 59 68
83 69 48 47 51 51 51 62 63 68 79 59 57 64 63 67 77 82 79 71 61 50 46 31 30 30 32 24 22 34 69 96
58 57 66 56 50 49 45 56 58 49 54 80 70 51 70 71 60 60 57 59 58 46 40 36 30 59 44 21 21 33 84 96
36 39 43 50 57 50 48 40 42 50 53 66 86 75 75 72 80 60 62 50 35 27 31 45 32 42 60 35 23 47 98 74
22 24 25 30 35 43 44 44 46 41 45 64 72 64 70 83 79 80 67 62 70 70 77 63 57 50 74 99 100 86 89 90
23 20 20 22 24 31 34 44 52 48 42 49 70 63 61 62 60 55 63 76 81 84 91 100 99 81 100 100 100 100 82 100
16 14 14 16 17 19 26 30 33 36 34 38 42 44 44 48 55 72 72 72 83 78 83 95 100 89 100 100 100 100 88 100
12 11 10 10 10 12 14 16 15 13 16 19 18 19 19 29 28 60 82 91 85 84 80 85 91 99 91 96 100 99 95 98
11 14 11 8 10 11 12 15 17 18 15 17 21 27 22 24 40 67 69 89 100 88 71 81 97 73 92 99 100 99 86 100
14 11 8 6 6 6 7 7 8 8 9 11 14 24 28 42 51 61 71 93 100 83 51 72 90 90 100 100 100 100 99 99
9 8 7 6 7 7 8 8 8 8 9 8 12 13 25 72 57 68 68 86 100 97 74 74 87 98 94 100 100 100 84 86
11 10 8 8 7 6 6 6 6 7 7 8 12 19 53 51 78 69 64 68 97 100 73 71 83 100 100 100 100 100 97 99
7 6 5 6 6 6 5 5 6 6 6 7 9 18 48 100 74 88 80 83 78 94 82 60 60 76 100 100 100 77 79 82
5 5 5 5 5 6 6 6 6 7 8 9 10 16 38 62 68 100 80 97 81 72 87 60 70 85 100 100 100 100 94 62
5 5 5 5 5 6 6 7 9 9 12 16 17 35 82 77 100 100 76 86 72 60 84 88 81 78 86 81 98 100 90 86
5 5 6 5 6 6 9 12 17 20 17 25 29 43 50 87 100 100 94 80 75 93 96 99 86 73 70 83 72 44 41 46